Regional Weather Roundup
Issued by NWS Charleston, SC

Current Version | Previous Version | Graphics & Text | Print | Product List | Glossary On
Versions: 1 2 3 4 5 6 7 8 9 10 11 12 13 14 15 16 17 18 19 20 21 22 23 24 25 26 27 28 29 30 31 32 33 34 35 36 37 38 39 40 41 42 43 44 45 46 47 48 49 50
000 ASUS42 KCHS 171827 RWRCHS Regional Weather Roundup National Weather Service Charleston SC 100 PM EST SAT FEB 17 2018 NOTE: "fair" indicates few or no clouds below 12,000 feet with no significant weather and/or obstructions to visibility. Not all stations are quality controlled. Use data with caution, especially dewpoint observations. SCZ027-030-031-034>040-042>050-171900- ...Southeast South Carolina... CITY SKY/WX TMP DP RH WIND PRES REMARKS N Charleston CLOUDY 65 57 75 E9 30.15F 6HR MIN TEMP: 63; 6HR MAX TEMP: 65; Waterfront Prk N/A 60 57 89 NE9 30.03F Mount Pleasant CLOUDY 61 55 82 CALM 30.15F HAZE Johns Island DRIZZLE 64 57 77 NE13 30.14F Pinopolis N/A 61 55 82 SE6 30.08F Moncks Corner CLOUDY 63 54 72 E6 30.15F Summerville CLOUDY 64 55 72 SE3 30.16F Beaufort MCAS PTSUNNY 71 63 75 E9 30.13F 6HR MIN TEMP: 63; 6HR MAX TEMP: 72; Beaufort Arpt CLOUDY 70 61 73 E5 30.13F HAZE Hilton Head Is CLOUDY 64 59 82 E9 30.16F Walterboro CLOUDY 68 61 77 E7 30.14F Allendale CLOUDY 73 59 60 S6G14 30.11F ...Southern Midlands and Pee Dee... CITY SKY/WX TMP DP RH WIND PRES REMARKS Georgetown CLOUDY 55 54 94 E9 30.17F Kingstree CLOUDY 61 52 72 SE9 30.16F Orangeburg CLOUDY 69 57 65 SE16 30.13F 6HR MIN TEMP: 64; 6HR MAX TEMP: 70; Barnwell N/A 73 61 64 S12 30.11F Aiken CLOUDY 70 55 60 SE13G18 30.13F Manning CLOUDY 61 41 48 MISG 30.15F Columbia CLOUDY 68 53 58 SE12 30.11F 6HR MIN TEMP: 63; 6HR MAX TEMP: 68; 6HR PCP: TRACE; Sumter CLOUDY 63 54 72 SE12 30.12F 6HR MIN TEMP: 61; 6HR MAX TEMP: 64; Florence CLOUDY 60 50 69 SE9 30.17F 6HR MIN TEMP: 58; 6HR MAX TEMP: 61; Myrtle Beach CLOUDY 55 48 77 E10 30.18F N Myrtle Beach CLOUDY 57 50 77 E10 30.16F 6HR MIN TEMP: 55; 6HR MAX TEMP: 58; $$ GAZ063-065-086>088-099>101-113>116-118-119-134>141-150-171900- ...Southeast Georgia... CITY SKY/WX TMP DP RH WIND PRES REMARKS Savannah Arpt PTSUNNY 76 60 57 SE8 30.14F 6HR MIN TEMP: 58; 6HR MAX TEMP: 76; Hunter AAF FAIR 74 71 92 S7 30.11F 6HR MIN TEMP: 58; 6HR MAX TEMP: 74; Fort Stewart FAIR 76 62 60 S5 30.12F 6HR MIN TEMP: 61; 6HR MAX TEMP: 77; Statesboro PTSUNNY 77 58 51 S10 30.11F Sylvania CLOUDY 75 64 67 SW8 30.13F Claxton FAIR 80 63 55 S10 30.12F ...CSRA, Central and far Southeast Georgia... CITY SKY/WX TMP DP RH WIND PRES REMARKS Thomson CLOUDY 74 62 66 W9G17 30.14F Augusta-Bush CLOUDY 74 60 61 S14 30.09F 6HR MIN TEMP: 58; 6HR MAX TEMP: 76; Augusta-Daniel PTSUNNY 74 60 61 S9 30.10F Swainsboro CLOUDY 77 63 61 SW7 30.12F Vidalia CLOUDY 79 63 57 S9 30.13F Eastman CLOUDY 79 48 33 W10G18 30.15F Hazlehurst FAIR 78 56 47 SW10 30.13F Alma FAIR 76 62 62 S6 30.15F 6HR MIN TEMP: 62; 6HR MAX TEMP: 76; Waycross FAIR 76 62 61 SW12 30.15F Jesup FAIR 81 61 50 SW9 30.13F Baxley FAIR 73 63 68 SW8G16 30.13F Brunswick FAIR 79 61 53 S8 30.14F Saint Simons FAIR 76 64 66 SE7 30.14F 6HR MIN TEMP: 62; 6HR MAX TEMP: 76; $$ SCZ027-028-034-036>038-045-046-048>050-GAZ119-141-171900- ...Lake and Supplemental Coastal Observations... STATION/POSITION TIME TEMP WIND PRES WAVE SWELL AIR SEA DIR/SP/G HT/PER HT/PER/DIR (UTC) (F) (DEG/KT/KT) (MB) (FT/S) (FT/S/D) Winyah Bay 1745 53 60/ 12 1022.0F Lake Murray 1750 63 140/ 13/ 16 1019.0F ACE Basin NERRS 1745 74 80/ 4 1021.0F Fort Pulaski 1800 61 58 80/ 6/ 7 1021.1 Sapelo Island 1800 76 180/ 6 1021.0 $$ ANZ835-935-AMZ111-154-330-350-352-354-370-450-454-472-171900- ...C-MAN and Buoy Observations... STATION/POSITION TIME TEMP WIND PRES WAVE SWELL AIR SEA DIR/SP/G HT/PER HT/PER/DIR (UTC) (F) (DEG/KT/KT) (MB) (FT/S) (FT/S/D) Buoy 41004 1810 69 69 90/ 8/ 10 1019.9 Buoy 41008 1750 58 58 210/ 6/ 6 1020.6F 2/11 2/120/11 Folly Beach CMAN 1800 58 50/ 16/ 19 1021.4F Capers Nearshore 1708 53 56 50/ 16/ 21 1021.4F Fripp Nearshore 1808 57 56 60/ 10/ 14 1020.3F STATION/POSITION TIME TEMP WIND PRES WAVE SWELL AIR SEA DIR/SP/G HT/PER HT/PER/DIR (UTC) (F) (DEG/KT/KT) (MB) (FT/S) (FT/S/D) 5E St. Marys GA 1800 60 N/A 2/11 2/110/11 Frying Pan Buoy 1810 64 64 80/ 16/ 19 1020.1 Buoy 41025 1810 63 70 110/ 12/ 16 1022.3 Cape Lookout NC 1800 40/ 18/ 21 1022.2F Buoy 41002 1750 72 73 110/ 14/ 16 1021.2F 5/ 7 3/230/ 7 Buoy 41010 NOT AVBL St Augustine FL 1800 63 59 140/ 11/ 11 1021.4F $$

USA.gov is the U.S. government's official web portal to all federal, state and local government web resources and services.